Total_Precipitation_Accumulation
0.18 0.21 0.48 0.58 0.63 0.68 0.69 0.67 0.61 0.57 0.59 0.62 0.61 0.58 0.53 0.53 0.55 0.56 0.62 0.66 0.72 0.74 0.78 0.90 0.95 0.96 0.95 0.91 0.88 0.82 0.74 0.69 0.69 0.69 0.74 0.78 0.74 0.63 0.53 0.48 0.43 0.51 0.68
0.13 0.20 0.42 0.52 0.56 0.65 0.72 0.68 0.59 0.50 0.50 0.57 0.56 0.50 0.48 0.48 0.52 0.55 0.61 0.70 0.74 0.72 0.75 0.83 0.92 0.96 0.95 0.90 0.87 0.71 0.54 0.43 0.39 0.37 0.41 0.53 0.64 0.64 0.54 0.49 0.52 0.71 0.76
0.12 0.18 0.32 0.50 0.54 0.62 0.68 0.64 0.55 0.51 0.48 0.51 0.50 0.46 0.45 0.46 0.52 0.59 0.64 0.70 0.73 0.77 0.76 0.76 0.91 0.97 0.98 0.91 0.85 0.70 0.51 0.36 0.26 0.24 0.24 0.37 0.56 0.70 0.62 0.56 0.60 0.70 0.70
0.14 0.17 0.26 0.46 0.56 0.61 0.64 0.60 0.55 0.51 0.50 0.48 0.45 0.46 0.47 0.50 0.53 0.58 0.66 0.74 0.74 0.82 0.84 0.87 0.94 0.90 0.88 0.81 0.75 0.66 0.53 0.37 0.25 0.20 0.20 0.33 0.55 0.75 0.70 0.62 0.58 0.64 0.65
0.17 0.22 0.34 0.46 0.59 0.63 0.63 0.60 0.57 0.54 0.50 0.48 0.46 0.47 0.49 0.52 0.55 0.57 0.59 0.66 0.71 0.79 0.79 0.80 0.86 0.82 0.77 0.75 0.67 0.65 0.62 0.44 0.26 0.16 0.17 0.28 0.51 0.79 0.72 0.64 0.58 0.57 0.58
0.18 0.24 0.38 0.50 0.62 0.65 0.64 0.67 0.67 0.61 0.56 0.52 0.50 0.51 0.52 0.56 0.58 0.58 0.55 0.53 0.57 0.62 0.65 0.70 0.75 0.74 0.70 0.64 0.57 0.59 0.65 0.54 0.28 0.16 0.20 0.25 0.42 0.71 0.71 0.67 0.62 0.61 0.54
0.22 0.26 0.39 0.56 0.70 0.71 0.70 0.68 0.70 0.66 0.63 0.58 0.58 0.60 0.59 0.58 0.60 0.56 0.48 0.46 0.48 0.49 0.51 0.61 0.71 0.74 0.71 0.63 0.57 0.58 0.63 0.50 0.25 0.24 0.27 0.29 0.39 0.59 0.77 0.77 0.70 0.66 0.58
0.23 0.28 0.43 0.64 0.80 0.78 0.78 0.76 0.78 0.74 0.71 0.65 0.64 0.67 0.68 0.68 0.65 0.61 0.52 0.48 0.46 0.44 0.46 0.51 0.62 0.77 0.76 0.64 0.59 0.60 0.57 0.37 0.20 0.21 0.27 0.32 0.41 0.64 1.01 1.06 0.83 0.69 0.62
0.31 0.34 0.43 0.65 0.86 0.88 0.81 0.84 0.87 0.83 0.83 0.77 0.74 0.72 0.67 0.67 0.66 0.67 0.63 0.57 0.55 0.52 0.49 0.49 0.56 0.73 0.76 0.67 0.63 0.61 0.45 0.27 0.18 0.24 0.24 0.35 0.40 0.73 1.14 1.19 1.02 0.81 0.68
0.38 0.47 0.57 0.70 0.98 1.04 0.83 0.80 0.86 0.85 0.87 0.83 0.79 0.69 0.55 0.57 0.64 0.62 0.57 0.56 0.55 0.55 0.53 0.48 0.49 0.60 0.67 0.65 0.68 0.58 0.31 0.18 0.15 0.20 0.31 0.32 0.37 0.75 1.20 1.27 1.16 0.96 0.79
0.49 0.62 0.76 0.92 1.08 1.12 0.94 0.81 0.89 0.90 0.90 0.83 0.74 0.64 0.54 0.54 0.54 0.52 0.43 0.44 0.51 0.57 0.55 0.53 0.52 0.57 0.60 0.54 0.57 0.46 0.26 0.17 0.15 0.21 0.33 0.31 0.38 0.73 1.20 1.33 1.23 1.11 0.98
0.53 0.69 0.78 1.00 1.11 1.09 0.99 0.92 0.96 0.91 0.87 0.78 0.63 0.64 0.66 0.64 0.61 0.54 0.47 0.44 0.50 0.55 0.59 0.61 0.61 0.59 0.55 0.49 0.58 0.46 0.27 0.21 0.20 0.17 0.23 0.27 0.43 0.74 1.07 1.26 1.31 1.21 1.14
0.55 0.73 0.88 1.07 1.26 1.19 1.08 1.01 1.01 0.98 0.91 0.83 0.73 0.69 0.76 0.79 0.72 0.67 0.61 0.57 0.54 0.52 0.55 0.58 0.62 0.56 0.56 0.67 0.84 0.64 0.44 0.36 0.25 0.19 0.16 0.22 0.40 0.65 0.91 1.12 1.31 1.39 1.36
0.60 0.73 0.95 1.11 1.27 1.32 1.23 1.13 1.04 0.94 0.89 0.83 0.84 0.79 0.82 0.79 0.67 0.63 0.56 0.52 0.53 0.52 0.53 0.54 0.56 0.58 0.58 0.63 0.66 0.62 0.49 0.41 0.30 0.25 0.22 0.21 0.28 0.46 0.66 0.89 1.15 1.40 1.48
0.60 0.67 0.89 1.07 1.20 1.31 1.35 1.27 1.17 1.02 0.89 0.84 0.85 0.87 0.84 0.78 0.72 0.63 0.55 0.54 0.51 0.49 0.50 0.49 0.47 0.50 0.57 0.60 0.55 0.51 0.50 0.42 0.34 0.31 0.29 0.29 0.27 0.33 0.52 0.76 0.97 1.23 1.49
0.54 0.62 0.76 0.94 1.05 1.20 1.21 1.21 1.23 1.15 1.04 0.98 0.92 0.89 0.96 0.88 0.78 0.72 0.62 0.56 0.54 0.50 0.48 0.48 0.47 0.50 0.52 0.54 0.52 0.49 0.45 0.41 0.36 0.36 0.35 0.35 0.34 0.35 0.45 0.66 0.84 1.02 1.35
0.48 0.59 0.72 0.82 0.93 1.04 1.10 1.13 1.16 1.14 1.09 1.01 0.95 0.92 0.98 1.01 0.88 0.83 0.78 0.68 0.59 0.55 0.58 0.62 0.60 0.61 0.63 0.64 0.60 0.59 0.55 0.49 0.42 0.44 0.46 0.46 0.43 0.42 0.47 0.63 0.76 0.87 1.14
0.46 0.53 0.66 0.74 0.85 0.97 1.11 1.18 1.22 1.18 1.15 1.01 0.98 0.98 0.95 1.00 1.02 0.97 0.92 0.86 0.72 0.68 0.71 0.72 0.73 0.74 0.68 0.70 0.70 0.70 0.68 0.63 0.52 0.51 0.54 0.52 0.53 0.49 0.47 0.52 0.65 0.80 1.00
0.43 0.49 0.62 0.72 0.76 0.87 1.09 1.27 1.26 1.31 1.31 1.16 1.09 1.11 1.02 0.98 0.98 0.99 1.00 0.96 0.85 0.77 0.78 0.79 0.73 0.74 0.75 0.79 0.84 0.84 0.85 0.83 0.74 0.65 0.57 0.54 0.56 0.54 0.50 0.46 0.51 0.63 0.79
0.49 0.51 0.59 0.75 0.88 0.99 1.16 1.33 1.40 1.33 1.33 1.30 1.18 1.14 1.09 1.07 1.02 0.98 0.99 0.97 0.94 0.91 0.88 0.84 0.79 0.78 0.78 0.82 0.88 0.88 0.88 0.85 0.82 0.76 0.68 0.64 0.62 0.55 0.48 0.45 0.49 0.52 0.55
0.54 0.56 0.58 0.68 0.88 1.04 1.13 1.21 1.30 1.22 1.21 1.26 1.25 1.16 1.12 1.04 1.02 1.00 0.93 0.93 0.93 0.91 0.90 0.89 0.86 0.82 0.78 0.81 0.86 0.83 0.80 0.78 0.76 0.71 0.66 0.64 0.64 0.65 0.63 0.58 0.55 0.52 0.51
0.53 0.59 0.59 0.60 0.75 0.90 0.97 1.09 1.26 1.31 1.31 1.37 1.32 1.26 1.26 1.09 0.95 0.96 0.94 0.91 0.92 0.94 0.92 0.89 0.90 0.89 0.85 0.83 0.88 0.89 0.82 0.78 0.75 0.67 0.63 0.61 0.62 0.69 0.71 0.70 0.68 0.63 0.58
0.55 0.56 0.59 0.59 0.67 0.83 1.01 1.15 1.30 1.51 1.51 1.47 1.39 1.29 1.33 1.30 1.05 0.93 0.91 0.93 0.92 0.93 0.93 0.88 0.86 0.90 0.94 0.91 0.90 1.06 1.08 0.88 0.74 0.67 0.64 0.61 0.60 0.60 0.58 0.59 0.63 0.65 0.65
0.57 0.57 0.57 0.62 0.67 0.79 0.99 1.13 1.14 1.22 1.28 1.16 1.11 1.13 1.21 1.37 1.28 1.01 0.89 0.85 0.85 0.88 0.91 0.95 0.89 0.86 0.93 0.92 0.89 0.87 0.88 0.84 0.90 0.77 0.57 0.53 0.51 0.52 0.51 0.51 0.53 0.54 0.57
0.61 0.59 0.59 0.66 0.70 0.76 0.92 1.07 1.14 1.14 1.14 1.17 1.11 1.06 1.12 1.20 1.28 1.19 0.97 0.92 0.88 0.85 0.84 0.91 0.95 0.92 0.91 0.89 0.89 0.87 0.82 0.74 0.76 0.95 0.72 0.49 0.46 0.46 0.45 0.48 0.52 0.57 0.58
0.66 0.66 0.65 0.67 0.73 0.74 0.82 0.96 1.07 1.10 1.14 1.21 1.19 1.04 1.02 1.12 1.18 1.19 1.10 0.96 0.93 0.88 0.83 0.85 0.90 0.90 0.92 0.92 0.89 0.89 0.93 0.93 0.82 0.90 0.87 0.59 0.49 0.44 0.43 0.45 0.48 0.54 0.61